Location: Crescent
(42.8242°N, 73.7329°W)
Time: 17:46:14
(UTC+00:00)

Vanguard 1 - Pass Details

Date: 23 February 2026
Orbit: 653 x 3818 km, 34.2° (Epoch: 5 March)

Event Time Altitude Azimuth Distance (km) Brightness Sun altitude
Rises 16:41:17 0° 188° (S) 3,503 13.8 37.2°
Reaches altitude 10° 16:44:54 10° 163° (SSE) 2,942 13.8 37.3°
Maximum altitude 16:48:31 14° 132° (SE) 3,035 13.4 37.3°
Drops below altitude 10° 16:53:04 10° 103° (ESE) 3,912 13.4 37.4°
Sets 16:59:27 0° 84° (E) 5,663 13.9 37.5°
